#timestamp,LO_Frequency,Hit,StdDev 
1585378815.7,286047000.2,N
1585378835.5,286047000.2,N
1585378855.4,286047002.4,N
1585378875.2,286047002.1,N
1585378895.0,286046999.7,N
1585378895.9,286046999.7,N
1585378915.8,286047002.8,N
1585378935.6,286046999.8,N
1585378955.4,286047002.3,N
1585378975.3,286047001.5,N
1585378995.1,286047002.0,N
1585379015.9,286047001.7,N
1585379035.7,286047002.5,N
1585379055.5,286047000.4,N
1585379075.4,286047002.8,N
1585379095.2,286047002.3,N
1585379145.1,286047002.8,E
1585379155.9,286046998.4,N
1585379175.7,286046997.3,P
1585379195.6,286046995.3,P
1585379215.4,286046997.8,N
1585379235.2,286046996.9,N
1585379255.1,286046994.9,Y
1585379256.0,286046994.9,P
1585379275.8,286047001.0,N
1585379295.7,286047000.4,N
1585379315.5,286046999.9,N
1585379335.4,286047004.3,N
1585379355.2,286047004.3,N
1585379375.0,286047003.7,N
1585379375.9,286047003.7,N
1585379395.8,286047003.2,N
1585379415.6,286047001.5,N
1585379435.4,286047003.3,N
1585379455.3,286047003.5,N
1585379475.1,286047003.4,N
1585379495.9,286047006.7,N
1585379515.7,286047007.0,N
1585379535.5,286047006.2,N
1585379555.4,286047004.9,N
1585379575.2,286047007.5,N
1585379595.0,286047005.2,N
1585379596.0,286047005.2,N
1585379615.8,286047003.1,N
1585379635.6,286047003.7,N
1585379655.5,286047001.5,N
1585379675.3,286046999.9,N
1585379695.1,286047001.8,N
1585379715.9,286047001.7,N
1585379735.7,286047002.3,N
1585379755.6,286047004.0,N
1585379775.4,286047003.4,N
1585379795.2,286047003.8,N
1585379815.1,286047002.7,N
1585379816.0,286047002.7,N
1585379835.8,286047002.5,N
1585379855.6,286047000.9,N
1585379875.5,286047002.8,N
1585379895.3,286047000.6,N
1585379915.2,286047000.2,N
1585379935.9,286047002.5,N
1585379955.7,286046999.9,N
1585379975.6,286047000.9,N
1585379995.4,286047002.2,N
1585380015.3,286047001.9,N
1585380035.1,286047000.2,N
1585380036.0,286047000.2,N
1585380055.8,286047004.1,N
1585380075.7,286047004.1,N
1585380095.5,286047004.2,N
1585380115.3,286047001.3,N
1585380135.2,286047001.9,N
1585380155.0,286046998.5,N
1585380155.9,286046998.5,N
1585380175.8,286047002.7,N
1585380195.6,286046999.7,N
1585380215.4,286047001.8,N
1585380235.3,286047001.7,N
1585380255.1,286047001.5,N
1585380275.9,286047003.9,N
1585380295.7,286047003.8,N
1585380315.5,286047003.9,N
1585380335.4,286047003.3,N
1585380355.2,286047002.9,N
1585380375.1,286047005.0,Y
1585380376.0,286047005.0,P
1585380395.8,286047001.5,N
1585380415.6,286047004.2,N
1585380435.5,286047001.3,N
1585380455.3,286047001.9,N
1585380475.2,286047002.8,N
1585380495.9,286046999.7,N
1585380515.7,286047002.8,N
1585380535.6,286046999.9,N
1585380555.4,286046998.9,N
1585380575.2,286046997.9,N
1585380595.1,286046998.2,N
1585380596.0,286046998.2,N
1585380615.8,286046998.0,N
1585380635.7,286047000.5,N
1585380655.5,286047000.8,N
1585380675.3,286046998.7,N
1585380695.2,286046996.9,N
1585380715.0,286046999.6,N
1585380715.9,286046999.6,N
1585380735.8,286046999.0,N
1585380755.6,286046999.2,N
1585380775.4,286046999.4,N
1585380795.3,286046999.1,N
1585380815.1,286046996.5,N
1585380835.8,286047000.8,N
1585380855.7,286046998.3,N
1585380875.5,286047001.5,N
1585380895.4,286046999.2,N
1585380915.2,286046998.6,N
1585380935.0,286046999.7,N
1585380935.9,286046999.7,N
1585380955.8,286047002.3,N
1585380975.6,286047000.5,N
1585380995.5,286046998.7,N
1585381015.3,286046998.2,N
1585381035.1,286047000.1,N
1585381055.9,286047001.0,N
1585381075.7,286046999.2,N
1585381095.5,286046997.1,N
1585381115.4,286046998.6,N
1585381135.2,286046996.5,N
1585381155.1,286046999.4,N
1585381156.0,286046999.4,N
1585381175.8,286046995.2,Y
1585381195.6,286046996.5,P
1585381215.5,286047000.9,N
1585381235.3,286047000.9,N
1585381255.2,286047001.0,N
1585381275.9,286047002.1,N
1585381295.7,286047005.9,Y
1585381315.6,286047002.2,P
1585381335.4,286047001.3,N
1585381355.2,286047001.4,N
1585381375.1,286047002.4,Y
1585381376.0,286047002.4,P
1585381395.8,286047000.6,N
1585381415.7,286047001.2,N
1585381435.5,286046998.1,N
1585381455.3,286046999.4,N
1585381475.2,286046998.6,N
1585381495.0,286046996.9,N
1585381495.9,286046996.9,N
1585381515.8,286046997.2,N
1585381535.6,286046999.4,N
1585381555.4,286046996.5,N
1585381575.3,286047000.8,N
1585381595.1,286046999.9,N
1585381615.9,286047000.8,N
1585381635.7,286047000.6,N
1585381655.5,286046998.4,N
1585381675.4,286047000.8,N
1585381695.2,286047000.0,N
1585381715.0,286046998.2,N
1585381716.0,286046998.2,N
1585381735.8,286046998.2,N
1585381755.6,286046996.8,N
1585381775.5,286046999.1,N
1585381795.3,286046998.9,N
1585381815.1,286046998.3,N
1585381835.9,286046998.6,N
1585381855.7,286046999.0,N
1585381875.6,286047000.9,N
1585381895.4,286046998.6,N
1585381915.2,286046999.7,N
1585381935.1,286046999.7,N
1585381936.0,286046999.7,N
1585381955.8,286046999.9,N
1585381975.6,286047000.6,N
1585381995.5,286046999.8,N
1585382015.3,286047000.2,N
1585382035.2,286047000.2,N
1585382055.0,286047000.6,N
1585382055.9,286047000.6,N
1585382075.7,286047000.4,N
1585382095.6,286046998.3,N
1585382115.4,286047002.4,N
1585382135.3,286047003.3,N
1585382155.1,286047001.7,N
1585382175.9,286047002.6,N
1585382195.7,286047000.9,N
1585382215.5,286047000.0,N
1585382235.4,286047000.0,N
1585382255.2,286047002.4,N
1585382275.0,286046999.7,N
1585382275.9,286046999.7,N
1585382295.8,286046998.6,N
1585382315.6,286046999.0,N
1585382335.5,286046998.4,N
1585382355.3,286046996.7,N
1585382375.1,286047000.5,N
1585382395.9,286047002.7,N
